Tracking 29892 objects as of 21-Nov-2024
HD Live streaming from Space Station
objects crossing your sky now

STARLINK-3990

Track STARLINK-3990 now!
10-day predictions
STARLINK-3990 is classified as:


NORAD ID: 52626
Int'l Code: 2022-052AE
Perigee: 545.1 km
Apogee: 548.7 km
Inclination: 53.2 °
Period: 95.4 minutes
Semi major axis: 6917 km
RCS: Unknown
Launch date: May 14, 2022
Source: United States (US)
Launch site: AIR FORCE EASTERN TEST RANGE (AFETR)
Your satellite tracking list
Your tracking list is empty




NASA's NSSDC Master Catalog

Two Line Element Set (TLE):
1 52626U 22052AE  24325.78997277  .00001112  00000-0  87965-4 0  9998
2 52626  53.2172 236.5339 0002627 119.0523 241.0732 15.08838085139448
Source of the keplerian elements: AFSPC